Temp
60 60 60 60 60 60 60 61 60 60 61 61 61 60 60 60 60 69 66 78 79 74 72 83 87 86 87 83 87 88 71 67 70 72 78 89 84 89 91 87 89 92 92 95 98
60 60 60 60 60 60 60 60 60 60 61 61 61 60 60 60 64 69 77 73 73 73 80 80 80 84 79 80 82 78 71 70 79 81 81 86 87 88 83 82 83 87 93 97 97
60 60 59 59 59 59 59 60 60 60 60 60 60 60 59 61 67 76 72 72 72 74 81 85 85 83 77 81 80 78 71 78 81 84 86 84 86 91 83 78 83 83 88 93 95
59 59 59 59 59 59 59 59 59 60 60 60 59 59 60 64 63 81 73 72 72 80 82 84 82 76 74 73 81 74 80 81 82 85 84 83 88 85 86 86 90 90 90 90 90
58 59 58 58 58 58 58 59 59 59 59 59 59 59 64 67 73 82 73 74 81 82 82 82 79 78 72 76 79 76 79 82 84 84 84 86 83 83 85 89 91 91 89 87 89
58 58 58 58 58 58 58 58 58 58 59 59 59 59 64 63 88 86 86 84 84 85 84 84 81 83 76 76 76 80 80 81 83 82 84 80 80 82 85 90 88 88 86 87 87
57 57 57 57 58 58 58 57 57 58 58 59 60 66 67 70 91 89 88 86 88 87 82 86 86 79 79 74 81 78 72 76 78 79 78 82 73 75 85 87 84 86 87 87 87
57 57 57 57 57 58 58 58 57 57 58 59 60 67 65 90 93 89 90 86 90 89 86 87 86 79 76 79 76 71 71 63 74 77 78 78 65 78 85 84 82 84 86 85 85
57 57 57 57 57 58 58 57 58 60 60 60 62 66 68 81 82 88 89 83 86 87 86 87 82 74 75 68 64 67 59 63 68 79 78 75 67 77 84 82 80 82 84 84 84
57 56 56 57 57 57 57 56 60 59 62 70 74 67 75 76 84 86 89 87 81 81 78 76 74 67 69 64 53 60 62 66 65 75 76 72 70 76 80 79 78 79 80 81 81
56 56 56 56 57 56 58 68 64 64 70 70 73 71 79 84 87 81 86 82 80 75 65 73 65 60 66 69 69 68 65 64 69 76 71 69 69 73 78 78 76 77 78 78 80
56 55 56 56 57 56 60 69 75 77 66 79 79 79 82 84 74 78 86 73 71 64 70 67 61 70 72 71 69 67 62 61 67 73 71 68 66 71 74 76 78 77 77 78 80
55 55 55 56 56 60 71 78 86 85 66 74 80 78 79 81 73 75 81 76 69 65 66 62 67 74 70 67 64 63 60 61 62 69 71 67 61 65 72 75 78 80 80 80 79
55 55 55 54 58 80 78 85 88 84 59 67 71 77 79 79 71 83 85 76 71 64 67 66 73 69 66 63 65 57 68 66 64 60 53 66 50 62 69 71 74 76 78 79 80
54 55 55 54 67 76 81 87 86 77 44 70 73 86 82 73 76 76 85 77 66 66 68 63 66 65 62 63 67 60 68 65 62 58 57 57 52 58 68 67 70 74 76 77 79
54 55 54 71 70 81 88 85 78 56 44 65 73 71 70 73 73 77 75 79 76 67 68 66 74 71 67 70 68 68 61 61 61 57 45 54 54 55 62 67 71 73 75 76 78
54 54 54 74 72 87 85 76 56 49 70 65 66 71 70 68 70 72 69 66 61 54 54 62 64 69 71 63 67 63 54 42 39 43 43 57 52 58 69 74 73 72 74 77 78
53 52 61 75 82 84 77 64 46 61 65 72 68 68 63 69 68 69 66 61 67 61 53 45 45 58 62 58 52 56 55 43 31 36 40 49 47 60 72 75 75 75 75 76 76
51 72 73 78 83 81 68 53 55 63 67 63 64 59 62 68 68 65 63 61 64 65 51 49 48 55 60 64 58 52 51 60 45 44 41 47 54 65 71 71 71 72 73 73 75
59 69 76 83 83 74 62 52 62 71 68 66 54 60 55 60 60 61 60 63 58 65 63 56 48 60 60 61 60 59 63 45 48 35 34 46 49 48 58 65 69 69 71 72 74
64 67 76 83 79 67 55 61 67 72 69 61 57 55 57 57 59 58 58 62 60 60 62 51 50 53 57 49 44 49 53 55 53 44 33 35 44 56 57 61 63 69 71 72 73
67 62 80 82 63 67 62 67 60 68 70 65 64 60 58 59 56 56 55 51 61 58 45 53 49 42 48 61 61 56 53 49 36 36 45 43 45 62 62 62 62 66 71 74 75
60 68 80 78 57 60 65 66 67 65 64 62 59 62 62 56 50 56 57 65 62 60 53 56 47 37 41 51 52 46 49 55 53 50 41 33 41 63 63 59 62 60 65 73 75
62 61 71 72 72 62 58 58 60 69 65 64 60 62 58 55 59 53 56 61 62 61 55 56 49 43 37 44 42 35 43 49 52 41 43 46 50 57 56 55 58 56 58 70 74
65 62 64 57 60 60 60 59 57 58 64 64 57 59 56 50 53 53 58 59 59 58 58 55 44 48 50 52 52 47 47 50 49 52 45 49 52 58 60 59 58 55 56 67 69
59 57 61 58 62 60 57 58 58 59 57 54 53 57 57 51 53 50 55 55 53 59 55 56 42 47 44 51 53 50 54 54 55 55 54 55 54 65 64 61 63 62 61 59 62
64 65 59 52 56 58 59 58 57 58 59 60 58 55 54 57 60 60 60 58 57 53 52 49 44 41 37 50 49 45 50 52 53 54 51 45 51 58 57 55 55 58 58 55 64
MSLP
1018.89 1018.48 1018.12 1017.75 1017.35 1016.96 1016.61 1016.31 1016.08 1015.81 1015.51 1015.23 1014.93 1014.72 1014.48 1014.22 1013.69 1012.57 1011.18 1009.20 1008.78 1009.05 1009.26 1008.51 1007.24 1006.85 1006.52 1006.05 1005.39 1005.13 1004.34 1002.79 1002.41 1001.66 1000.50 999.82 999.60 1000.12 1000.89 1001.18 1001.35 1001.28 1001.31 1001.44 1001.69
1018.79 1018.40 1017.99 1017.65 1017.26 1016.89 1016.53 1016.16 1015.84 1015.53 1015.22 1014.93 1014.67 1014.53 1014.36 1014.10 1013.06 1010.65 1008.85 1008.63 1008.73 1009.02 1008.71 1007.65 1006.76 1006.33 1005.87 1005.44 1005.11 1004.23 1003.14 1002.35 1002.30 1001.41 1000.36 999.59 999.04 999.26 1000.56 1001.13 1001.42 1001.65 1001.72 1001.65 1001.93
1018.68 1018.33 1017.93 1017.57 1017.23 1016.82 1016.41 1016.00 1015.62 1015.26 1014.98 1014.69 1014.46 1014.31 1014.17 1013.88 1011.28 1007.93 1008.35 1008.28 1008.61 1008.90 1008.44 1007.02 1006.24 1005.51 1004.98 1004.56 1003.94 1003.53 1002.10 1002.20 1001.50 1001.08 1000.42 999.60 998.92 998.68 999.27 1000.31 1000.83 1001.23 1001.41 1001.53 1001.63
1018.50 1018.13 1017.79 1017.40 1017.00 1016.62 1016.24 1015.89 1015.49 1015.08 1014.75 1014.48 1014.33 1014.18 1013.92 1013.35 1009.28 1007.60 1008.09 1008.26 1008.74 1008.62 1007.75 1006.33 1005.83 1005.36 1004.53 1003.77 1003.37 1002.55 1001.92 1001.61 1001.23 1000.87 1000.25 999.54 999.40 999.10 999.00 999.65 999.93 1000.80 1001.41 1001.65 1002.11
1018.34 1017.91 1017.56 1017.15 1016.71 1016.31 1015.94 1015.59 1015.22 1014.91 1014.62 1014.36 1014.23 1014.13 1013.26 1010.91 1007.54 1007.60 1007.79 1008.17 1008.27 1007.89 1006.62 1005.45 1004.91 1004.39 1003.85 1003.23 1002.73 1001.86 1001.46 1001.13 1000.82 1000.66 1000.21 999.88 999.17 999.03 998.82 999.59 1000.34 1000.75 1001.43 1001.88 1001.93
1018.12 1017.65 1017.18 1016.80 1016.32 1015.91 1015.57 1015.27 1015.01 1014.71 1014.42 1014.22 1014.17 1014.14 1012.83 1008.98 1006.14 1007.17 1007.23 1007.46 1007.33 1006.52 1005.74 1005.16 1004.48 1003.99 1003.75 1002.94 1002.25 1001.63 1001.10 1000.68 1000.52 1000.26 1000.13 999.95 999.62 999.59 999.08 999.57 1000.22 1000.52 1001.02 1001.84 1002.16
1017.89 1017.33 1016.88 1016.44 1015.94 1015.49 1015.14 1014.84 1014.56 1014.32 1014.09 1014.00 1014.05 1013.49 1011.22 1007.81 1005.81 1006.16 1006.68 1006.56 1006.23 1005.81 1005.48 1004.98 1004.89 1004.83 1004.09 1003.38 1002.75 1002.28 1001.77 1001.01 1000.50 1000.69 1000.28 1000.26 1000.11 999.35 999.56 999.87 1000.08 1000.36 1000.62 1001.13 1002.04
1017.63 1017.07 1016.54 1016.05 1015.59 1015.17 1014.77 1014.39 1014.11 1013.84 1013.66 1013.70 1013.85 1012.90 1009.26 1005.89 1005.78 1005.91 1005.94 1006.02 1005.85 1005.83 1005.78 1005.52 1005.47 1005.31 1004.75 1004.02 1003.08 1002.69 1002.15 1001.18 1000.59 1000.38 1000.16 1000.38 999.17 999.54 999.93 1000.02 999.91 1000.15 1000.42 1001.02 1001.93
1017.45 1016.79 1016.20 1015.68 1015.26 1014.82 1014.43 1014.06 1013.53 1013.15 1013.36 1013.50 1013.27 1011.62 1007.40 1006.24 1005.94 1005.61 1005.65 1005.50 1005.32 1005.49 1005.59 1005.67 1005.61 1005.35 1004.73 1004.06 1003.25 1002.47 1001.53 1000.68 999.80 999.33 999.06 999.49 999.35 999.72 999.75 999.53 999.49 999.29 1000.12 1000.79 1001.66
1017.21 1016.57 1015.91 1015.36 1014.86 1014.51 1014.16 1013.85 1013.31 1013.14 1013.05 1012.52 1011.18 1009.86 1006.68 1005.05 1004.97 1005.45 1005.44 1005.44 1005.33 1005.36 1005.21 1005.38 1005.24 1004.80 1004.18 1003.63 1002.23 1001.39 1000.49 999.83 999.01 998.39 998.14 998.49 999.03 999.39 999.44 999.65 999.82 1000.16 1000.61 1001.06 1001.71
1016.98 1016.30 1015.67 1014.98 1014.54 1014.41 1013.84 1012.93 1012.93 1011.87 1010.56 1008.59 1007.43 1006.69 1005.12 1004.90 1005.06 1005.35 1005.33 1005.48 1005.62 1005.36 1004.90 1004.50 1004.25 1003.47 1002.92 1002.33 1001.98 1001.39 1000.62 999.81 998.94 998.06 998.57 999.17 999.53 999.33 999.31 999.25 999.68 1000.16 1000.62 1001.03 1001.29
1016.79 1016.14 1015.46 1014.80 1014.24 1014.03 1014.08 1011.39 1009.52 1009.17 1007.93 1006.34 1005.77 1005.34 1005.00 1004.80 1004.62 1004.89 1005.15 1005.24 1005.08 1004.81 1004.34 1004.05 1003.03 1002.68 1002.49 1002.19 1001.60 1001.19 1001.03 1000.61 1000.08 999.35 999.15 999.16 999.50 999.83 999.67 999.19 999.00 999.16 999.79 1000.34 1000.89
1016.62 1015.95 1015.31 1014.66 1013.95 1013.39 1011.44 1009.53 1008.78 1008.22 1007.40 1004.70 1004.43 1004.33 1004.19 1004.75 1004.35 1003.80 1004.45 1004.65 1004.61 1004.22 1003.74 1003.18 1002.24 1001.93 1001.97 1001.73 1001.71 1001.89 1001.84 1001.40 1000.78 1000.11 999.70 999.62 999.69 999.99 999.52 999.25 998.82 998.60 999.12 999.67 1000.11
1016.48 1015.71 1015.16 1014.51 1014.14 1010.30 1009.11 1008.86 1008.26 1008.37 1006.77 1003.63 1003.62 1003.27 1003.71 1004.09 1003.74 1003.71 1003.45 1004.24 1004.12 1003.83 1003.48 1002.79 1002.18 1001.82 1001.88 1002.28 1002.48 1002.07 1001.84 1001.56 1001.27 1001.01 1000.32 1000.51 999.42 998.83 997.87 997.59 997.41 998.25 998.63 999.07 999.46
1016.33 1015.61 1014.87 1014.99 1013.13 1009.86 1009.13 1008.65 1008.59 1008.45 1005.66 1003.59 1002.76 1003.10 1002.98 1003.50 1002.41 1002.83 1003.37 1003.66 1003.73 1003.57 1003.31 1002.50 1002.14 1001.75 1001.90 1002.53 1002.51 1002.53 1002.27 1002.11 1002.25 1002.08 1001.89 1001.38 1000.50 998.87 998.00 996.99 997.21 997.90 998.69 999.43 999.84
1016.18 1015.48 1014.88 1012.45 1012.61 1009.79 1008.78 1008.83 1008.71 1007.58 1004.37 1002.70 1002.66 1002.74 1002.92 1002.87 1002.72 1002.69 1003.00 1003.46 1003.68 1003.50 1003.18 1002.71 1002.37 1001.91 1001.91 1002.11 1002.74 1003.28 1003.69 1003.17 1003.11 1003.26 1002.47 1001.51 1000.67 998.36 997.25 996.14 996.36 997.55 998.64 999.57 1000.13
1015.72 1015.09 1014.99 1012.65 1010.66 1009.30 1009.30 1008.70 1007.75 1005.53 1003.04 1002.33 1002.33 1002.24 1002.23 1002.11 1001.82 1001.67 1001.86 1002.14 1002.47 1002.74 1002.79 1002.95 1002.26 1001.99 1001.82 1002.34 1002.74 1003.64 1004.40 1004.39 1004.23 1003.35 1001.59 1001.48 1000.07 997.54 996.09 994.90 995.56 997.18 998.39 999.20 999.99
1014.73 1014.24 1012.46 1011.78 1010.58 1009.71 1009.50 1008.54 1006.79 1004.32 1002.89 1002.71 1003.02 1002.99 1002.60 1002.00 1001.61 1001.38 1001.40 1001.84 1002.19 1003.10 1003.55 1004.47 1003.82 1003.85 1003.63 1003.59 1003.89 1003.96 1004.17 1004.22 1004.52 1003.95 1003.17 1003.17 999.69 996.85 996.08 996.13 996.84 997.61 998.40 999.29 999.99
1013.91 1011.85 1011.23 1010.34 1010.01 1009.94 1009.37 1007.57 1005.46 1004.09 1004.04 1004.13 1004.12 1003.41 1002.47 1001.66 1001.33 1001.53 1002.20 1002.68 1002.71 1002.95 1003.67 1003.95 1003.86 1004.92 1004.85 1003.82 1004.71 1004.75 1003.80 1004.07 1004.82 1005.70 1004.29 1002.77 1000.76 998.91 997.50 996.79 997.51 998.39 999.05 999.60 1000.02
1014.31 1011.56 1009.44 1009.11 1009.63 1009.77 1009.01 1007.02 1005.35 1004.26 1004.55 1004.96 1004.90 1004.47 1003.68 1003.11 1002.83 1002.39 1002.59 1003.40 1004.44 1004.38 1004.40 1004.59 1003.81 1003.93 1004.41 1004.87 1004.94 1003.87 1003.90 1004.62 1004.81 1005.03 1004.02 1001.84 1000.98 1000.30 998.82 997.97 998.15 998.71 999.15 999.65 1000.09
1013.70 1010.67 1009.41 1009.26 1009.54 1009.16 1007.76 1005.87 1004.78 1004.87 1005.48 1005.85 1005.64 1005.44 1005.15 1004.61 1004.26 1003.72 1003.48 1004.06 1005.56 1005.35 1005.85 1006.57 1006.07 1004.39 1004.62 1005.29 1005.19 1005.39 1003.67 1004.11 1004.75 1005.45 1005.24 1003.40 1001.77 1001.72 1000.89 1000.40 999.57 999.30 999.48 999.77 1000.22
1013.06 1010.10 1008.85 1008.89 1008.77 1007.40 1006.29 1005.52 1005.78 1005.54 1005.79 1005.94 1006.00 1005.84 1005.52 1005.13 1004.90 1004.62 1004.56 1005.74 1006.68 1006.43 1007.14 1007.39 1006.81 1005.90 1005.57 1004.56 1004.80 1005.24 1004.43 1005.27 1006.08 1005.78 1004.66 1003.87 1001.65 1001.45 1001.87 1001.84 1001.67 1001.03 1000.15 999.91 999.77
1014.06 1010.08 1008.52 1008.57 1007.80 1007.05 1006.74 1006.29 1006.24 1005.79 1006.06 1006.35 1006.45 1006.45 1006.43 1006.04 1005.80 1005.42 1005.13 1005.30 1006.48 1006.41 1007.03 1007.22 1007.06 1006.90 1006.13 1005.46 1005.73 1006.28 1005.90 1004.54 1005.08 1004.89 1004.36 1004.76 1002.63 1001.76 1001.69 1002.25 1002.83 1002.55 1001.00 999.71 998.99
1014.46 1010.28 1008.53 1008.25 1007.74 1008.02 1007.78 1007.48 1006.61 1006.47 1006.49 1006.98 1007.06 1007.02 1006.61 1006.28 1006.06 1005.75 1005.34 1005.77 1006.40 1006.65 1007.66 1007.91 1007.66 1007.50 1006.99 1006.31 1007.64 1007.61 1006.81 1005.32 1004.82 1004.49 1004.02 1002.82 1001.77 1001.49 1001.83 1002.22 1002.43 1002.10 1001.90 1000.20 999.28
1014.17 1011.38 1010.98 1009.76 1009.02 1009.00 1008.86 1008.16 1007.44 1006.83 1007.07 1007.51 1007.55 1007.00 1006.90 1006.84 1006.35 1006.02 1005.78 1005.73 1006.56 1007.05 1007.53 1007.70 1007.74 1007.55 1006.95 1006.33 1005.82 1006.14 1005.88 1005.37 1004.33 1003.38 1003.12 1002.51 1001.35 1000.84 1000.93 1001.30 1001.89 1003.19 1003.17 999.86 999.44
1014.86 1014.07 1012.75 1011.77 1010.23 1009.45 1008.70 1007.98 1007.47 1007.60 1008.29 1008.24 1008.23 1007.86 1007.62 1007.33 1007.22 1006.93 1006.79 1006.71 1006.60 1006.72 1007.18 1007.67 1007.98 1008.04 1007.24 1006.41 1005.13 1004.12 1003.65 1003.52 1002.94 1002.63 1002.16 1001.70 1000.51 1000.18 1000.30 1001.01 1001.31 1001.34 1001.30 1001.65 1000.91
1016.38 1015.51 1014.46 1012.71 1011.16 1009.49 1008.58 1008.49 1008.62 1008.80 1008.81 1008.59 1008.38 1008.36 1007.97 1007.51 1007.78 1007.84 1007.82 1007.81 1007.78 1007.61 1007.51 1008.18 1008.73 1008.43 1007.26 1005.87 1005.24 1003.74 1003.58 1003.20 1002.91 1002.92 1003.22 1002.95 1002.65 1002.16 1001.57 1001.63 1002.72 1001.65 1001.76 1001.88 1000.75
Wind_Speed
17 17 17 17 16 15 14 14 15 14 15 15 15 15 15 16 18 18 14 5 5 3 4 12 14 13 15 17 21 21 17 18 25 27 22 20 15 18 16 13 15 20 14 10 8
19 18 17 17 16 16 15 15 14 14 15 15 15 15 15 15 17 19 6 9 9 6 8 12 13 14 14 19 19 20 18 25 24 24 24 27 23 13 19 15 18 20 20 9 1
19 19 17 16 17 17 16 15 14 14 14 15 15 15 15 15 12 6 10 11 8 5 11 12 12 15 17 18 21 23 23 23 24 24 26 28 27 21 19 17 18 18 21 18 16
20 19 18 17 17 17 16 15 14 14 14 14 14 14 15 9 3 10 11 10 7 9 15 13 11 14 17 18 21 25 26 25 23 24 27 27 24 24 15 17 13 14 9 14 4
20 19 19 18 18 17 16 15 14 13 13 13 12 11 10 9 14 13 12 9 9 11 13 10 10 13 16 18 20 23 24 24 24 23 24 24 27 20 19 16 10 12 9 11 11
19 19 19 19 18 17 16 15 14 13 12 12 10 10 8 12 16 14 11 11 12 11 12 9 10 9 12 16 18 18 20 22 20 21 21 21 23 23 22 14 15 17 11 12 14
19 19 19 19 19 18 16 15 13 13 13 11 8 8 11 18 5 17 11 12 12 9 9 7 9 10 12 14 14 16 19 22 16 17 23 20 23 29 22 16 22 21 20 15 15
19 18 19 19 18 18 17 15 14 14 14 11 6 8 9 7 9 8 13 11 11 7 10 11 8 13 16 16 18 13 16 17 21 22 22 16 24 21 19 21 23 22 20 7 13
20 19 19 18 18 18 17 16 17 13 10 8 7 9 14 4 9 12 12 11 13 11 9 8 8 14 15 16 15 15 16 21 24 23 23 25 25 21 20 21 14 18 13 10 12
21 20 19 17 17 16 16 16 5 5 8 10 12 9 10 12 11 14 14 10 7 11 12 12 12 13 14 14 16 18 23 20 21 21 9 16 17 20 16 6 9 10 10 12 13
23 21 20 17 15 13 12 6 7 8 13 14 8 12 10 3 1 5 9 10 12 13 13 15 14 14 18 19 21 21 24 19 20 12 16 15 14 16 16 16 16 14 13 13 13
23 22 21 19 17 9 7 9 8 8 10 18 20 12 14 5 8 11 14 13 14 15 16 16 16 17 17 19 21 14 16 17 21 20 16 11 14 16 19 19 17 15 15 14 14
22 22 21 19 15 7 12 7 8 9 9 14 11 11 10 12 13 11 13 13 15 17 17 17 18 16 12 13 12 14 18 18 21 19 17 11 15 16 24 23 22 16 12 13 14
24 22 19 20 7 10 7 7 10 7 7 10 8 8 6 9 14 14 11 15 17 19 18 16 18 14 8 15 13 18 18 19 16 19 13 12 16 20 19 22 24 20 16 11 14
25 23 20 8 13 9 9 9 9 5 7 10 10 8 6 11 6 10 10 10 15 18 18 17 17 14 14 14 16 14 18 12 14 14 13 19 15 16 19 15 11 10 7 6 5
25 23 20 8 8 15 8 9 6 7 5 6 4 6 10 13 14 12 11 14 14 19 19 21 22 19 16 11 12 11 16 18 12 13 16 21 20 18 18 20 18 16 14 10 11
27 23 12 8 11 12 9 8 8 8 3 1 1 6 10 13 15 14 17 19 16 18 16 22 22 17 22 18 15 13 11 10 9 14 17 11 16 17 11 9 21 19 14 11 9
30 22 9 9 13 9 8 8 8 13 11 13 8 15 18 17 17 19 13 15 20 13 8 11 21 12 7 15 6 14 16 10 9 10 12 14 10 8 4 9 10 10 7 4 4
31 3 6 11 8 5 8 9 13 10 12 12 15 18 16 17 15 7 14 18 19 17 7 13 10 4 26 12 12 20 18 13 10 19 17 12 19 12 6 12 12 9 9 9 3
8 8 9 9 2 5 9 14 20 12 7 11 15 12 17 19 21 20 10 8 7 15 13 14 19 8 5 7 12 21 14 8 9 12 17 14 15 7 14 13 12 11 8 7 5
5 6 5 2 2 7 9 15 14 15 11 6 14 18 18 18 18 19 19 15 8 11 14 13 18 15 3 3 7 20 15 12 10 10 5 9 6 5 11 10 8 2 5 4 7
6 7 7 3 8 8 11 6 4 14 8 12 14 15 16 16 17 19 19 10 8 3 3 10 6 8 19 15 20 17 9 10 7 9 12 13 16 9 5 4 10 14 9 9 15
8 9 6 3 6 10 16 15 18 13 9 9 13 16 15 16 16 18 14 9 5 9 9 9 4 6 10 14 14 11 23 13 11 11 15 6 10 5 6 11 9 16 18 16 11
7 7 5 7 6 7 13 16 14 13 8 9 9 14 13 12 12 11 10 8 4 6 7 2 9 12 13 16 8 4 15 22 14 10 14 19 19 17 6 6 15 15 22 24 17
6 8 6 8 12 16 12 15 17 12 10 11 12 13 12 14 15 13 13 8 7 4 6 5 12 14 17 19 22 16 17 20 22 18 17 17 23 18 15 15 16 20 28 16 16
7 7 7 14 12 13 11 14 13 10 13 14 13 13 13 10 11 13 15 14 13 10 7 5 11 12 16 20 22 20 19 27 25 23 22 22 23 17 20 20 12 10 12 15 18
10 9 8 9 14 14 10 10 14 14 8 10 7 11 13 11 12 13 12 12 13 13 8 6 5 8 11 16 15 15 12 16 16 10 10 11 19 23 22 12 15 10 10 14 18
Wind_Direction
337 334 331 328 327 328 325 321 320 317 313 312 310 310 312 313 303 266 254 265 191 105 294 266 265 240 240 246 246 237 244 246 249 254 256 246 213 186 197 242 236 263 275 316 33
333 330 329 325 325 323 320 317 316 314 312 310 309 310 314 318 296 272 215 132 125 161 229 224 233 230 236 231 235 236 241 242 249 260 260 260 257 214 180 202 230 233 258 257 299
331 331 327 326 324 318 315 313 311 308 307 307 309 312 314 313 282 146 147 118 117 192 252 275 275 266 233 235 233 231 245 249 251 252 264 273 277 267 181 199 213 229 232 242 259
329 326 325 324 320 315 310 308 307 306 306 305 306 312 310 286 317 128 145 128 170 244 260 244 232 241 246 243 241 247 241 249 253 264 268 264 266 265 264 275 189 221 256 273 114
331 329 326 320 315 311 306 303 302 299 298 299 302 313 300 234 251 137 139 156 212 231 250 247 248 241 250 247 251 247 249 255 248 255 266 274 272 280 274 232 260 230 214 274 268
328 326 323 318 313 309 302 298 294 291 288 288 293 303 252 259 111 148 180 177 244 221 253 239 268 313 306 289 272 268 260 258 262 268 255 265 276 277 260 264 267 271 195 239 273
330 328 326 320 314 309 303 297 289 281 275 269 275 274 265 252 308 156 206 208 229 258 276 260 305 299 279 267 267 272 274 275 248 267 253 251 257 255 264 261 261 254 257 217 241
333 328 326 321 315 310 303 299 292 278 260 252 253 261 265 254 237 232 202 225 247 249 264 296 293 274 277 281 284 259 269 261 256 244 246 240 250 250 251 250 249 250 253 207 258
335 330 328 324 317 309 306 302 292 274 240 221 231 220 263 129 226 241 236 225 231 221 242 258 273 268 264 253 255 251 253 249 248 242 230 217 242 249 254 259 257 232 236 250 248
337 333 327 323 317 312 308 299 351 161 209 198 261 257 255 254 172 217 217 240 254 255 236 233 242 251 242 247 248 251 237 232 248 267 210 214 233 247 254 260 246 252 249 253 233
339 335 328 320 315 317 314 212 204 202 228 251 308 236 299 226 92 216 224 215 249 248 258 252 234 238 248 244 241 255 272 292 292 291 189 215 246 267 247 223 212 228 235 229 234
339 335 329 321 312 319 281 261 27 308 293 262 232 260 275 297 262 217 221 222 226 244 254 242 254 250 264 273 276 287 289 285 280 283 291 249 240 257 269 271 263 219 214 228 213
335 335 332 325 317 268 232 1 306 300 275 286 212 238 222 223 241 242 202 228 249 267 253 261 279 287 286 289 269 267 268 272 276 275 271 264 274 273 258 257 258 247 245 240 228
333 334 334 329 291 274 247 346 318 8 275 207 197 221 187 205 235 240 227 222 248 261 266 270 271 264 290 274 265 272 259 258 276 259 267 276 270 264 250 258 212 232 231 243 230
330 331 328 325 312 293 0 318 343 264 286 159 138 99 230 203 332 201 219 261 259 273 273 259 272 261 228 255 272 278 310 301 296 290 277 259 262 263 270 259 196 203 192 223 211
327 325 328 266 222 263 332 331 268 238 253 153 174 232 216 224 242 258 192 214 255 277 270 269 276 271 259 247 243 294 304 289 255 257 258 257 256 261 259 247 186 166 180 180 177
323 315 306 303 286 340 326 271 251 256 122 262 319 311 257 266 275 253 234 235 235 243 250 264 267 292 266 254 235 237 260 272 274 253 245 287 285 244 239 261 155 160 174 171 166
321 311 224 239 276 320 292 254 256 274 330 10 343 310 292 284 275 269 283 269 254 296 264 298 295 342 310 293 298 285 231 227 258 270 302 313 277 237 202 128 75 84 104 149 195
315 202 233 223 248 288 274 246 248 315 346 340 323 291 291 319 324 308 292 312 329 339 264 265 255 317 306 236 175 240 248 240 240 251 263 239 262 288 285 140 142 162 178 200 183
315 292 254 134 172 266 260 264 289 307 3 326 303 303 305 319 323 314 277 264 15 301 327 301 289 306 16 346 270 235 232 247 237 275 269 266 253 5 303 195 176 189 187 177 177
268 262 97 287 207 250 252 274 327 6 353 317 310 305 304 309 305 298 311 345 3 329 350 354 306 284 133 185 191 283 238 232 246 192 231 285 286 299 21 8 11 328 187 172 212
304 290 131 230 270 236 248 347 311 301 303 304 285 280 286 306 308 307 309 64 292 11 323 280 243 288 290 276 228 254 221 214 237 281 279 271 265 199 184 274 321 285 270 237 232
296 287 159 245 300 333 335 328 321 313 338 318 312 312 317 308 299 295 317 312 313 307 24 359 9 332 328 321 360 353 325 275 270 269 243 235 273 248 332 48 285 314 312 265 251
279 313 351 312 272 295 327 312 314 322 294 303 305 303 290 299 315 298 274 298 275 340 105 336 280 260 283 295 162 234 282 301 274 261 266 255 270 265 195 264 296 325 305 285 279
262 339 14 303 322 317 306 298 298 306 343 331 301 284 328 315 308 307 318 325 136 159 273 275 284 285 288 298 289 222 229 250 267 255 251 268 272 275 273 229 203 248 237 310 331
335 341 344 296 304 299 285 292 297 336 342 312 301 313 307 304 307 306 310 313 315 318 246 327 293 293 289 283 279 303 249 229 243 250 254 264 272 295 336 346 325 303 349 332 313
356 338 304 292 297 307 312 338 313 326 307 302 297 314 302 326 334 313 303 294 291 289 291 290 279 314 288 296 289 270 356 320 344 335 331 293 317 315 312 352 299 324 304 242 269